Content
SEND FEEDBACK

Daily
Averages
Monthly
Summary
Canada

MONTREAL, QUEBEC


Home > North America > Canada > Quebec
Elevation: 118 feet     Latitude: 45 28N     Longitude: 073 45W

WEATHER
 
SELECT A DAY
Number of Records: 197,834;   Date Range: 1/1/95 - 7/8/14
 
SHARE

PRINT THIS DATA

[ ← Previous Day ]
WEATHER ALMANAC - JANUARY 24, 2013
[ Next Day → ]
[ °C ]   °F
Weather ElementAverageHighLow
Temperature-5.2 °F1.4 °F (9:00 pm)-11.2 °F (1:00 am)
Dewpoint-19.5 °F-13 °F (9:00 pm)-25.6 °F (1:00 am)
Humidity47.4 %55 % (10:00 pm)31 % (1:00 am)
Barometer30.27 in30.40 in (11:00 pm)30.20 in (4:00 am)
Wind Speed17.5 mph25.3 mph (4:00 pm)
Wind Gust32.2 mph (1:00 pm)
Weather ElementAverage
Visibility19.9 mi
Wind DirectionWSW (257.8 °)

Weather ElementTotal
Precipitation---
Heating Degree Days69.9 (Base 65)
Averaged from 27 records on January 24, 2013
WEATHER CONDITIONS BREAKOUT
WIND DIRECTION BREAKOUT
WEATHER BY HOUR - JANUARY 24, 2013
[ °C ]   °F
Local TimeTemperatureDewpointHumidityBarometerVisibilityWind DirectionWind SpeedGust SpeedPrecipitationEventsConditions
1:00 AM-11.0 °F-25.0 °F31 %30.21 in15.0 miWest (260°)8.1 mphScattered Clouds
1:00 AM-11.2 °F-25.6 °F49 %30.21 in15.0 miWest (260°)8.1 mphPartly Cloudy
2:00 AM-9.4 °F-25.6 °F45 %30.21 in15.0 miWSW (250°)10.4 mphMostly Cloudy
3:00 AM-9.4 °F-23.8 °F49 %30.21 in15.0 miWSW (250°)12.7 mphMostly Cloudy
4:00 AM-9.4 °F-23.8 °F49 %30.20 in15.0 miWSW (250°)13.8 mphMostly Cloudy
5:00 AM-9.4 °F-22.0 °F54 %30.20 in15.0 miWest (260°)15.0 mphOvercast
6:00 AM-9.4 °F-23.8 °F49 %30.21 in15.0 miWest (260°)13.8 mph20.7 mphOvercast
7:00 AM-10.0 °F-24.0 °F33 %30.22 in15.0 miWSW (250°)16.1 mphMostly Cloudy
7:00 AM-9.4 °F-23.8 °F49 %30.22 in15.0 miWSW (250°)16.1 mphMostly Cloudy
8:00 AM-9.4 °F-23.8 °F49 %30.26 in30.0 miWSW (250°)15.0 mphMostly Cloudy
9:00 AM-9.4 °F-22.0 °F54 %30.27 in15.0 miWSW (240°)17.3 mphMostly Cloudy
10:00 AM-7.6 °F-22.0 °F50 %30.28 in15.0 miWest (260°)17.3 mph24.2 mphOvercast
11:00 AM-5.8 °F-20.2 °F50 %30.26 in30.0 miWSW (250°)21.9 mphMostly Cloudy
12:00 PM-5.8 °F-20.2 °F50 %30.25 in30.0 miWest (260°)19.6 mph27.6 mphOvercast
1:00 PM-5.0 °F-18.0 °F35 %30.23 in28.0 miWest (270°)23.0 mphMostly Cloudy
1:00 PM-4.0 °F-18.4 °F50 %30.23 in30.0 miWest (260°)20.7 mph32.2 mphOvercast
2:00 PM-2.2 °F-16.6 °F50 %30.23 in30.0 miWest (270°)24.2 mph29.9 mphMostly Cloudy
3:00 PM-0.4 °F-16.6 °F46 %30.26 in30.0 miWest (260°)21.9 mph31.1 mphMostly Cloudy
4:00 PM-0.4 °F-16.6 °F46 %30.27 in30.0 miWest (270°)25.3 mph32.2 mphMostly Cloudy
5:00 PM-0.4 °F-14.8 °F51 %30.29 in30.0 miWSW (250°)17.3 mph23.0 mphMostly Cloudy
6:00 PM-0.4 °F-14.8 °F51 %30.32 in15.0 miWSW (250°)17.3 mph26.5 mphMostly Cloudy
7:00 PM-1.0 °F-16.0 °F32 %30.35 in15.0 miWest (260°)20.7 mphPartly Cloudy
7:00 PM-0.4 °F-16.6 °F46 %30.35 in15.0 miWest (260°)20.7 mph29.9 mphMostly Cloudy
8:00 PM-0.4 °F-14.8 °F51 %30.36 in15.0 miWSW (250°)19.6 mph25.3 mphMostly Cloudy
9:00 PM1.4 °F-13.0 °F51 %30.37 in15.0 miWest (270°)19.6 mph27.6 mphMostly Cloudy
10:00 PM-0.4 °F-13.0 °F55 %30.38 in15.0 miWest (270°)17.3 mphMostly Cloudy
11:00 PM-0.4 °F-13.0 °F55 %30.40 in15.0 miWest (270°)18.4 mph25.3 mphMostly Cloudy
Hourly data recorded from CYUL, located miles away from Montreal, Quebec







STORIES FROM OUR PARTNERS